Regional Weather Roundup
Issued by NWS

Home | Current Version | Previous Version | Text Only | Print | Product List | Glossary Off
Versions: 1 2 3 4 5 6 7 8 9 10 11 12 13 14 15 16 17 18 19 20 21 22 23 24 25 26 27 28 29 30 31 32 33 34 35 36 37 38 39 40 41 42 43 44 45 46 47 48 49 50

000
ASUS43 KIND 241800
RWRIN

WEATHER ROUNDUP FOR INDIANA
NATIONAL WEATHER SERVICE INDIANAPOLIS IN
200 PM EDT SUN SEP 24 2017

NOTE: "FAIR" INDICATES FEW OR NO CLOUDS BELOW 12,000 FEET WITH NO
SIGNIFICANT WEATHER AND/OR OBSTRUCTIONS TO VISIBILITY.

* - STATION DOES NOT REPORT WEATHER SUCH AS PRECIPITATION OR FOG.

+ - STATION NOT QUALITY CONTROLLED BY THE NATIONAL WEATHER SERVICE.
    USE DATA WITH CAUTION...ESPECIALLY DEWPOINT AND RELATIVE
    HUMIDITY OBSERVATIONS.

INZ001>003-010>013-019-020-241900-
NORTHWEST INDIANA

CITY           SKY/WX    TMP DP  RH WIND       PRES   REMARKS
GARY /AIRPORT/ SUNNY     90  55  31 S6        30.08F

$$

LMZ046-743>745-241900-
SOUTHERN LAKE MICHIGAN

STATION/POSITION TIME  TEMP    WIND        PRES    WAVE
                       AIR SEA DIR/SP/G            HT
                 (UTC) (F)     (DEG/KT/KT) (MB)    (FT)
BURNS HARBOR     1740   88     150/  6/ 11 1018.6F
MICHIGAN CITY    1730   85     130/  7/ 11   N/A
5NW MICH CITY    1750   79 73   40/  4/  4   N/A     0

$$

INZ004-005-014>016-021>024-241900-
NORTH CENTRAL INDIANA

CITY           SKY/WX    TMP DP  RH WIND       PRES   REMARKS
GOSHEN         SUNNY     88  56  33 SE10      30.11F
6HR MIN TEMP:  63; 6HR MAX TEMP:  88;

SOUTH BEND     SUNNY     88  57  34 SE12      30.10F
6HR MIN TEMP:  66; 6HR MAX TEMP:  88;


$$

INZ006>009-017-018-025>027-241900-
NORTHEAST INDIANA

CITY           SKY/WX    TMP DP  RH WIND       PRES   REMARKS
FORT WAYNE     MOSUNNY   87  57  35 SE10      30.11F
6HR MIN TEMP:  62; 6HR MAX TEMP:  87;

KENDALLVILLE + SUNNY     86  60  40 S8        30.13F

$$

INZ028-029-035-036-043>045-051>053-241900-
WEST CENTRAL INDIANA

CITY           SKY/WX    TMP DP  RH WIND       PRES   REMARKS
LAFAYETTE      SUNNY     87  66  49 CALM      30.06F
6HR MIN TEMP:  63; 6HR MAX TEMP:  87;

TERRE HAUTE    MOSUNNY   90  59  35 S5        30.06F
6HR MIN TEMP:  61; 6HR MAX TEMP:  91;


$$

INZ030>032-037>040-046>048-054>057-064-065-241900-
CENTRAL INDIANA

CITY           SKY/WX    TMP DP  RH WIND       PRES   REMARKS
COLUMBUS       SUNNY     86  54  32 CALM      30.08F
GREENWOOD *+   SUNNY     91  61  36 E7        30.09F
INDIANAPOLIS   MOSUNNY   88  59  37 E6        30.08F
6HR MIN TEMP:  68; 6HR MAX TEMP:  89;

-EAGLE CREEK   SUNNY     89  57  33 VRB7      30.08F
6HR MIN TEMP:  66; 6HR MAX TEMP:  89;

KOKOMO +       SUNNY     87  61  41 SE8       30.10F
6HR MIN TEMP:  62; 6HR MAX TEMP:  87;

MT COMFORT *+  SUNNY     88  57  35 E6        30.10F
SHELBYVILLE    SUNNY     90  56  31 SE7       30.08F
6HR MIN TEMP:  63; 6HR MAX TEMP:  91;


$$

INZ033-034-041-042-049-050-058-059-241900-
EAST CENTRAL INDIANA

CITY           SKY/WX    TMP DP  RH WIND       PRES   REMARKS
MUNCIE         SUNNY     91  53  27 VRB5      30.09F
6HR MIN TEMP:  60; 6HR MAX TEMP:  91;

RICHMOND +     SUNNY     84  55  37 SE6       30.13F

$$

INZ060-061-067>069-081>083-085>088-241900-
SOUTHWEST INDIANA

CITY           SKY/WX    TMP DP  RH WIND       PRES   REMARKS
EVANSVILLE     SUNNY     88  63  43 CALM      30.04F
6HR MIN TEMP:  63; 6HR MAX TEMP:  88;

HUNTINGBURG +  SUNNY     87  67  51 E7        30.05F
6HR MIN TEMP:  63; 6HR MAX TEMP:  87;


$$

INZ062-063-066-070>080-084-089>092-241900-
SOUTH CENTRAL AND SOUTHEAST INDIANA

CITY           SKY/WX    TMP DP  RH WIND       PRES   REMARKS
BLOOMINGTON    SUNNY     90  58  33 SE12      30.07F
6HR MIN TEMP:  61; 6HR MAX TEMP:  90;

MADISON *+     SUNNY     86  59  39 E6        30.10F
SEYMOUR +      SUNNY     90  64  43 E5        30.07F

$$





USA.gov is the U.S. government's official web portal to all federal, state and local government web resources and services.